Regional Weather Roundup
Issued by NWS Tiyan, Guam

Home | Current Version | Previous Version | Text Only | Print | Product List | Glossary On
Versions: 1 2 3 4 5 6 7 8 9 10 11 12 13 14 15 16 17 18 19 20 21 22 23 24 25 26 27
000
ASGM40 PGUM 192012
RWRGUM
WEATHER ROUNDUP FOR THE MARIANAS
NATIONAL WEATHER SERVICE TIYAN GU
600 AM CHST SUN AUG 20 2017

GUZ001>004-192100-
MARIANA ISLANDS-

CITY           SKY/WX    TMP DP  RH WIND       PRES   REMARKS
GUAM AIRPORT   CLEAR     79  77  94 NE5       29.83F
ANDERSEN AFB   PTCLDY    77  73  88 E6        29.88F
ROTA AIRPORT   NOT AVBL
TINIAN AP      PTCLDY    77  75  94 CALM      29.81
SAIPAN AP      MOCLDY    82  75  78 SE3       29.82F

$$





USA.gov is the U.S. government's official web portal to all federal, state and local government web resources and services.